Regional Weather Roundup
Issued by NWS

Home | Current Version | Previous Version | Graphics & Text | Print | Product List | Glossary On
Versions: 1 2 3 4 5 6 7 8 9 10 11 12 13 14 15 16 17 18 19 20 21 22 23 24 25 26 27 28 29 30 31 32 33 34 35 36 37 38 39 40 41 42 43 44 45 46 47 48 49 50
000
ASUS43 KOAX 011702
RWRNE

WEATHER ROUNDUP FOR NEBRASKA
NATIONAL WEATHER SERVICE OMAHA NE
1100 AM CST SUN FEB 01 2015

NOTES: SATELLITE DATA IS BEING USED TO AUGMENT CLOUD COVER ABOVE
       12000 FEET.
       "FAIR" INDICATES FEW OR NO CLOUDS BELOW 12,000 FEET WITH NO
       SIGNIFICANT WEATHER AND/OR OBSTRUCTIONS TO VISIBILITY.

  * THESE STATIONS DO NOT REPORT WEATHER SUCH AS RAIN...SNOW OR FOG.

NEZ001>004-019>022-054>056-011800-
NEBRASKA PANHANDLE

CITY           SKY/WX    TMP DP  RH WIND       PRES   REMARKS
SCOTTSBLUFF    CLOUDY    17   8  67 NW23G29   30.27R WCI  -1
ALLIANCE       CLOUDY     7   0  73 N15       30.25R WCI -10
CHADRON        LGT SNOW   5  -1  76 N9        30.36R WCI  -9
SIDNEY         CLOUDY    12   6  77 N18       30.22R WCI  -6
$$

NEZ057>060-069>072-079>082-011800-
SOUTHWEST NEBRASKA

CITY           SKY/WX    TMP DP  RH WIND       PRES   REMARKS
NORTH PLATTE   CLOUDY     8   0  69 N24G32    30.26R WCI -13
IMPERIAL       SUNNY     13   4  67 N33G44    30.26R BLWGSNOWWCI  -9
MCCOOK         MOSUNNY   13   3  64 NW30      30.25R WCI  -8
$$

NEZ005>010-023>029-035>040-094-011800-
NORTH CENTRAL NEBRASKA

CITY           SKY/WX    TMP DP  RH WIND       PRES   REMARKS
VALENTINE      LGT SNOW   2  -5  72 N22       30.33R WCI -20
BROKEN BOW     LGT SNOW   6   0  76 N29G39    30.22R VSB 3/4 WCI -17
ORD            LGT SNOW   6  -1  73 NW24G32   30.23R VSB 3/4 WCI -16
$$

NEZ041-046>049-061>064-073>077-083>087-011800-
SOUTH CENTRAL NEBRASKA

CITY           SKY/WX    TMP DP  RH WIND       PRES   REMARKS
GRAND ISLAND   BLWGSNOW   7   3  84 N30G40    30.18R VSB 1/4 WCI -16
HASTINGS       HVY SNOW   9   4  80 N32G40    30.15R VSB 1/4 WCI -14
KEARNEY *      CLOUDY     9   3  78 N29G38    30.18R WCI -14
$$

NEZ011>018-030>034-042>045-011800-
NORTHEAST NEBRASKA

CITY           SKY/WX    TMP DP  RH WIND       PRES   REMARKS
NORFOLK        SNOW       5   1  83 NW31G41   30.18R VSB 1/2 WCI -19
TEKAMAH        HVY SNOW  17  12  80 N36G43    30.10R VSB 1/4 WCI  -4
$$

NEZ050>053-065>068-078-088>093-011800-
SOUTHEAST NEBRASKA

CITY           SKY/WX    TMP DP  RH WIND       PRES   REMARKS
LINCOLN        SNOW      15  10  80 N31G39    30.08R VSB 1/2 WCI  -6
OMAHA EPPLEY   LGT SNOW  19  16  88 N25G36    30.01R VSB 3/4 WCI   1
FALLS CITY     LGT SNOW  24  20  84 NW21G33   29.91R VSB 3/4 WCI   9
$$

NEZ044-045-051>053-067-011800-
OMAHA AREA

CITY           SKY/WX    TMP DP  RH WIND       PRES   REMARKS
OMAHA EPPLEY   LGT SNOW  19  16  88 N25G36    30.01R VSB 3/4 WCI   1
$$


USA.gov is the U.S. government's official web portal to all federal, state and local government web resources and services.